Wind_Speed
40 36 33 27 24 25 25 24 20 15 15 19 16 14 14 16 16 18 25 30 25 25 22 23 26 31 29 29 30 30 31 31 33 35 35 38 38 39 38 40 39 40 42
39 35 32 29 25 24 26 24 17 13 14 17 17 18 16 15 19 25 28 27 20 26 29 28 29 30 31 34 32 31 34 36 38 37 38 43 39 38 40 40 41 43 44
37 44 43 30 28 27 25 19 14 20 26 25 20 16 18 21 24 20 23 25 25 27 28 26 24 28 30 29 32 33 38 39 40 42 45 39 37 38 39 39 42 42 40
27 36 40 33 27 35 29 22 24 19 22 26 23 21 19 20 20 24 24 25 30 32 28 27 28 28 30 29 38 37 40 40 41 43 40 37 36 39 39 38 39 36 37
19 21 29 33 33 30 35 22 20 17 23 32 30 26 26 23 23 23 28 29 31 31 29 28 26 29 37 37 33 36 37 40 41 39 34 32 36 38 34 34 36 38 39
18 19 32 32 34 35 41 28 30 19 23 21 26 24 23 28 26 27 23 23 29 30 34 29 32 38 39 33 33 36 38 37 34 28 29 34 32 30 33 34 38 41 40
19 34 32 34 34 36 38 31 31 33 24 29 28 25 21 23 26 28 27 28 34 37 38 35 36 38 34 33 34 30 28 28 26 29 31 24 26 28 32 36 35 33 26
20 35 34 31 34 32 33 29 28 26 24 25 26 27 23 19 24 30 35 39 39 39 38 37 36 34 29 22 21 22 21 21 23 23 19 22 25 28 30 25 22 19 20
23 34 34 31 37 33 29 27 26 28 33 32 30 29 28 25 31 37 38 41 40 36 29 26 24 19 16 15 13 14 14 16 16 17 18 20 24 21 18 20 20 20 20
23 27 34 30 37 33 32 32 29 28 33 33 35 30 30 32 38 39 30 25 24 24 20 20 17 13 8 6 6 8 10 10 12 15 18 21 15 14 16 16 18 20 19
25 20 29 32 32 24 23 21 19 26 31 31 28 29 33 37 34 28 25 26 25 23 19 12 5 1 6 6 5 6 8 13 16 16 17 14 11 14 14 15 16 20 22
24 18 18 20 19 22 25 26 23 18 19 25 27 30 27 21 23 29 28 20 17 14 8 2 9 12 9 8 11 11 15 15 14 13 15 14 12 14 15 16 17 18 20
17 20 15 16 19 19 23 22 20 16 20 26 26 21 16 14 21 18 9 4 9 12 16 15 14 13 13 14 15 16 18 15 14 18 20 16 13 12 14 17 19 22 24
21 18 14 11 15 8 9 18 15 15 14 11 14 14 6 6 11 22 30 33 31 25 20 19 20 16 15 21 20 22 24 23 24 27 25 22 21 21 24 25 25 25 25
12 9 10 8 13 12 7 7 9 8 5 8 8 7 12 9 15 23 29 27 28 24 25 20 20 25 29 26 30 27 32 30 33 33 31 33 36 38 38 37 33 29 25
9 10 13 14 16 16 11 4 4 7 6 7 15 22 21 21 22 26 30 32 29 27 34 37 35 33 32 32 30 31 32 33 34 40 47 47 48 47 46 45 42 36 30
6 12 13 16 19 20 16 9 2 4 7 20 21 25 29 32 33 35 36 39 43 43 43 42 38 35 34 32 32 38 38 38 43 47 53 54 50 43 44 45 41 39 38
4 7 9 14 17 20 19 18 9 8 19 30 30 35 31 37 36 35 35 44 51 54 50 50 48 46 44 44 41 41 42 45 48 49 42 38 40 46 46 39 43 39 37
10 2 8 7 15 22 26 24 13 16 29 35 37 37 33 34 38 43 47 48 56 56 59 55 51 47 44 37 36 44 45 36 29 26 21 16 18 18 43 48 41 42 39
13 11 5 6 12 17 19 19 21 27 32 31 29 30 33 30 33 37 40 52 54 59 54 47 37 36 36 35 38 37 22 17 25 31 23 21 36 36 34 35 35 36 39
21 21 17 17 17 26 30 24 29 32 33 37 26 19 22 26 23 34 39 47 49 50 32 35 38 28 23 22 27 31 31 28 30 35 46 42 31 27 31 30 31 33 32
23 22 24 28 28 29 28 29 33 33 34 34 26 24 12 19 16 21 24 34 31 23 24 25 23 27 26 20 22 21 25 23 30 31 30 32 32 36 35 33 33 35 30
22 29 32 37 39 37 33 31 29 31 33 28 26 16 12 21 16 18 19 24 23 26 17 6 15 24 25 18 19 19 18 21 23 25 29 29 26 26 20 24 27 28 28
22 29 33 36 39 37 38 40 36 31 32 28 24 15 13 15 18 15 16 19 16 13 4 6 3 11 8 14 22 18 19 20 20 19 22 28 37 37 35 34 31 28 30
24 30 33 36 38 36 34 34 29 24 24 23 19 18 14 26 24 17 16 15 10 8 10 7 7 14 15 21 15 14 22 22 18 18 21 28 26 25 24 25 27 26 26
24 35 39 42 40 38 36 33 31 27 24 19 14 15 27 21 14 19 20 19 15 12 14 10 16 14 17 17 17 23 20 19 19 20 24 22 26 29 26 24 23 21 20
Wind_Direction
229 231 225 238 242 227 219 216 220 240 236 229 210 222 221 248 266 288 295 305 310 301 301 295 299 298 302 302 300 305 304 305 316 317 312 315 315 315 312 311 316 312 309
224 216 230 229 232 218 202 211 230 217 186 223 217 230 254 267 261 281 287 296 310 299 294 288 295 302 301 304 300 301 307 306 308 312 314 314 314 314 312 317 313 309 306
224 222 234 218 233 211 202 201 214 210 209 226 221 235 259 281 282 276 286 296 297 312 305 293 302 298 305 307 306 293 303 306 307 312 315 318 318 316 315 311 305 305 306
225 228 228 225 220 201 199 192 194 215 201 219 235 254 283 291 286 288 295 292 297 307 304 290 289 301 309 300 295 300 301 301 308 313 317 319 321 320 314 309 309 307 308
223 221 207 209 216 200 183 189 186 222 229 233 250 254 274 279 291 289 302 298 299 299 300 296 294 300 302 296 293 294 298 306 310 315 319 321 317 315 309 314 315 315 312
216 192 190 193 202 200 194 191 202 211 224 242 253 260 273 274 294 292 291 295 296 303 304 294 289 297 300 298 295 300 303 310 316 321 320 314 312 317 321 323 319 316 311
203 183 186 198 205 204 203 203 207 225 249 248 253 261 266 290 287 291 295 296 297 300 301 294 295 298 297 298 299 307 316 316 322 320 317 320 323 325 326 326 324 325 333
202 191 196 201 202 207 206 218 225 238 242 250 262 261 261 285 289 284 283 290 292 295 294 292 293 293 299 305 310 311 312 317 320 320 324 330 330 333 334 342 359 32 49
193 197 199 206 205 208 218 229 228 238 236 254 268 264 257 274 292 299 291 291 291 290 288 288 290 297 299 299 298 311 324 334 332 332 333 336 337 347 9 38 48 46 42
184 203 202 196 203 215 225 238 230 246 246 256 268 262 273 273 287 290 290 292 288 283 283 293 295 292 300 319 337 360 346 340 346 344 334 345 7 30 46 50 36 34 32
180 189 207 203 203 214 225 234 257 262 263 260 254 265 278 281 281 280 286 293 291 287 287 287 274 358 108 86 45 14 7 16 3 350 340 9 36 58 42 42 31 29 26
192 188 192 194 202 231 233 245 255 256 255 248 258 280 282 291 294 283 290 290 280 275 270 66 123 120 108 54 49 41 33 27 11 360 21 53 80 48 43 35 23 26 34
175 191 185 209 211 228 245 245 243 258 255 261 270 274 288 318 317 299 270 117 114 113 109 115 107 90 78 68 59 53 53 49 53 57 57 63 65 52 40 29 42 44 46
151 156 174 175 193 220 219 233 234 241 246 253 285 300 314 58 79 83 95 96 96 95 102 91 78 72 79 71 69 74 79 76 75 66 62 61 59 49 44 46 46 43 45
148 145 197 186 197 219 218 190 187 205 228 307 350 52 115 119 95 94 96 94 93 94 87 80 73 82 82 87 92 87 86 83 79 76 73 68 63 58 54 53 53 54 51
188 200 206 209 199 206 211 200 175 222 266 82 89 106 105 97 93 94 94 95 90 92 93 91 87 88 91 96 96 94 91 92 91 87 80 78 74 68 60 50 46 47 48
248 241 233 225 207 205 226 197 147 8 111 117 115 108 100 93 95 93 97 98 96 95 92 91 90 90 89 87 94 92 94 93 92 87 83 76 68 60 62 55 47 42 49
26 231 215 211 203 201 177 163 178 119 135 129 124 102 95 89 93 98 104 108 105 99 94 90 88 88 91 96 96 97 94 99 97 86 75 67 68 59 61 51 48 45 40
31 308 226 208 192 195 197 199 204 151 139 143 124 107 87 90 88 102 109 112 105 102 94 87 83 85 89 89 90 95 95 87 88 80 72 56 56 69 62 60 53 49 51
47 30 19 186 191 179 165 166 161 143 145 151 137 113 98 94 93 92 110 112 111 102 99 89 80 80 77 84 76 76 102 93 83 78 80 87 80 93 70 52 41 58 61
68 67 72 95 123 134 144 144 140 145 155 148 138 120 91 123 112 103 112 113 106 101 81 87 78 87 86 81 75 67 69 73 84 89 93 82 80 77 63 61 68 65 65
83 86 85 105 109 121 130 133 136 150 145 140 136 136 121 103 106 114 126 129 113 102 113 77 76 75 106 101 104 80 80 75 91 88 73 70 77 78 75 76 72 70 65
84 90 94 105 117 124 126 134 137 135 142 137 133 130 170 116 115 115 117 146 124 107 110 81 71 87 88 106 107 77 93 85 81 74 70 80 90 74 80 79 67 68 66
86 102 103 108 112 119 131 131 128 129 136 146 142 152 134 129 121 140 120 138 140 133 98 102 140 78 51 116 112 81 108 105 89 82 80 82 83 73 70 76 72 67 66
102 103 107 113 118 124 129 137 135 136 137 148 155 165 146 127 122 98 128 120 127 145 140 155 103 90 109 119 109 110 124 101 102 87 87 95 75 66 65 68 68 67 70
120 118 113 117 122 122 123 127 131 128 132 140 136 128 162 167 150 119 124 117 120 120 149 157 125 94 107 113 112 127 119 107 97 96 103 85 73 74 85 83 78 67 74
Height
10950 10953 10955 10961 10965 10967 10970 10973 10974 10976 10977 10978 10979 10979 10981 10981 10981 10982 10982 10981 10982 10981 10980 10979 10977 10975 10973 10971 10970 10967 10964 10961 10959 10957 10954 10951 10948 10943 10939 10934 10929 10925 10921
10944 10948 10952 10957 10961 10963 10966 10969 10971 10973 10975 10976 10977 10979 10979 10980 10981 10982 10981 10981 10980 10980 10979 10977 10976 10973 10970 10969 10966 10963 10960 10957 10955 10953 10950 10946 10942 10938 10934 10929 10925 10921 10916
10940 10945 10946 10953 10957 10960 10965 10968 10970 10973 10973 10974 10975 10976 10977 10977 10977 10977 10978 10978 10977 10976 10975 10974 10972 10971 10969 10965 10963 10959 10956 10953 10950 10947 10943 10940 10937 10934 10930 10926 10921 10917 10912
10936 10940 10943 10949 10953 10958 10964 10967 10970 10971 10970 10972 10973 10973 10973 10973 10972 10973 10973 10973 10973 10971 10971 10970 10969 10967 10965 10964 10959 10954 10952 10949 10945 10942 10939 10936 10933 10930 10926 10922 10917 10912 10908
10931 10935 10939 10945 10949 10957 10961 10964 10970 10966 10968 10970 10970 10971 10970 10970 10969 10969 10968 10967 10967 10966 10965 10964 10963 10962 10960 10958 10956 10952 10948 10945 10943 10940 10936 10933 10930 10925 10921 10916 10911 10907 10902
10929 10933 10939 10942 10946 10953 10958 10961 10964 10963 10966 10967 10968 10967 10967 10966 10965 10965 10963 10962 10962 10961 10960 10959 10957 10956 10954 10952 10950 10948 10945 10943 10941 10937 10934 10931 10926 10921 10917 10913 10908 10902 10896
10927 10932 10938 10941 10944 10948 10953 10957 10962 10963 10964 10964 10965 10964 10964 10964 10964 10963 10958 10956 10956 10956 10954 10952 10950 10949 10949 10947 10946 10944 10942 10941 10938 10936 10932 10929 10924 10920 10916 10911 10904 10898 10893
10925 10930 10934 10939 10944 10948 10953 10958 10959 10961 10961 10961 10961 10962 10962 10961 10959 10958 10956 10953 10951 10950 10950 10947 10945 10944 10943 10941 10940 10941 10940 10939 10937 10934 10931 10928 10925 10920 10915 10909 10904 10899 10896
10924 10929 10931 10937 10942 10948 10953 10956 10956 10958 10957 10957 10958 10960 10959 10957 10955 10954 10950 10948 10947 10945 10944 10942 10941 10940 10939 10938 10937 10938 10938 10937 10935 10933 10931 10928 10925 10921 10916 10911 10907 10904 10901
10922 10927 10932 10936 10941 10949 10953 10952 10953 10955 10955 10956 10956 10956 10955 10953 10951 10947 10944 10943 10942 10941 10940 10939 10938 10937 10936 10936 10936 10937 10937 10936 10936 10934 10931 10928 10925 10922 10918 10915 10911 10908 10905
10923 10928 10933 10936 10941 10947 10948 10949 10951 10953 10955 10954 10953 10953 10951 10950 10947 10942 10939 10937 10936 10936 10937 10935 10935 10935 10936 10937 10938 10939 10938 10936 10935 10934 10931 10927 10925 10923 10921 10917 10913 10910 10907
10925 10929 10932 10936 10940 10944 10944 10946 10949 10950 10951 10951 10951 10951 10950 10947 10943 10937 10933 10929 10929 10931 10933 10933 10934 10935 10938 10940 10940 10939 10937 10936 10935 10934 10930 10926 10925 10924 10921 10918 10915 10912 10910
10924 10929 10930 10936 10941 10941 10941 10942 10945 10949 10949 10950 10951 10949 10947 10944 10938 10929 10925 10925 10927 10930 10932 10934 10937 10938 10940 10941 10940 10939 10938 10935 10935 10934 10932 10930 10927 10924 10922 10920 10917 10916 10913
10926 10928 10931 10935 10938 10937 10939 10939 10946 10949 10948 10950 10949 10946 10945 10942 10938 10931 10928 10928 10930 10934 10937 10938 10939 10941 10941 10939 10939 10941 10939 10937 10937 10936 10937 10937 10933 10930 10928 10925 10922 10919 10916
10928 10929 10929 10934 10936 10936 10937 10941 10946 10946 10947 10948 10945 10941 10942 10943 10940 10934 10930 10933 10934 10938 10939 10941 10943 10944 10941 10940 10942 10943 10942 10941 10940 10940 10943 10941 10938 10936 10935 10934 10929 10924 10920
10930 10930 10930 10932 10934 10935 10936 10942 10944 10946 10947 10948 10946 10946 10945 10946 10942 10936 10935 10936 10940 10944 10944 10943 10946 10947 10945 10944 10943 10942 10943 10943 10943 10945 10942 10939 10936 10935 10938 10943 10940 10934 10927
10929 10928 10928 10929 10931 10935 10937 10943 10944 10948 10950 10952 10951 10949 10951 10948 10944 10940 10940 10942 10944 10947 10948 10947 10949 10949 10951 10952 10950 10949 10949 10950 10951 10951 10947 10945 10942 10942 10940 10945 10945 10948 10935
10926 10923 10923 10924 10928 10931 10936 10941 10945 10952 10952 10955 10953 10955 10955 10954 10949 10945 10946 10945 10949 10951 10953 10953 10955 10954 10955 10958 10958 10957 10956 10957 10956 10956 10956 10954 10952 10949 10945 10949 10951 10953 10946
10924 10921 10920 10920 10922 10927 10935 10942 10948 10954 10954 10957 10955 10958 10960 10961 10960 10953 10951 10954 10957 10957 10957 10958 10963 10963 10962 10964 10966 10967 10964 10965 10964 10961 10958 10960 10959 10956 10955 10954 10957 10955 10955
10927 10919 10915 10917 10919 10924 10931 10941 10950 10954 10958 10961 10960 10962 10967 10967 10967 10967 10966 10964 10965 10964 10963 10962 10969 10968 10971 10972 10971 10975 10971 10967 10966 10962 10964 10964 10965 10960 10961 10962 10961 10960 10964
10930 10923 10920 10920 10919 10925 10935 10943 10951 10956 10960 10964 10965 10967 10970 10972 10974 10974 10976 10975 10975 10972 10973 10969 10973 10976 10976 10977 10977 10980 10976 10974 10971 10970 10971 10970 10970 10966 10965 10965 10967 10969 10969
10935 10930 10927 10927 10929 10933 10941 10948 10955 10961 10966 10970 10971 10972 10973 10976 10976 10979 10981 10982 10979 10979 10978 10977 10978 10981 10981 10980 10980 10983 10981 10979 10978 10977 10976 10975 10974 10974 10973 10972 10973 10973 10974
10942 10937 10935 10935 10940 10945 10950 10957 10962 10967 10971 10972 10973 10976 10975 10977 10981 10983 10985 10987 10987 10985 10984 10981 10984 10987 10987 10987 10987 10986 10985 10983 10983 10981 10981 10982 10981 10980 10978 10975 10978 10979 10976
10949 10946 10942 10944 10947 10953 10960 10965 10969 10973 10975 10975 10978 10980 10979 10981 10984 10987 10987 10990 10990 10990 10987 10987 10987 10989 10993 10993 10990 10990 10990 10988 10988 10987 10987 10987 10989 10985 10983 10980 10981 10982 10982
10955 10952 10948 10950 10954 10959 10965 10967 10972 10975 10978 10981 10982 10982 10984 10986 10987 10990 10991 10990 10989 10990 10991 10992 10994 10995 10996 10994 10992 10994 10994 10994 10994 10993 10993 10994 10992 10989 10986 10986 10988 10989 10989
10959 10959 10958 10959 10961 10964 10969 10972 10975 10977 10980 10982 10982 10983 10984 10988 10991 10993 10992 10993 10994 10992 10991 10993 10997 10998 10997 10996 10997 10999 10998 10999 10999 10999 10998 11000 10997 10995 10992 10993 10993 10994 10995